Flag for Germany Weather past 2 weeks in Frankenthal (Pfalz), Rhineland-Palatinate, Germany

Now
54 °F

Passing clouds.


Feels Like: 53 °F
Forecast: 50 / 64 °F
Wind: 5 mph from Southeast

Location: Baden Wurttemberg - Neuostheim

Current Time: Aug 22, 2014 at 9:02:38 AM

Latest Report: Aug 22, 2014 at 8:20 AM


Visibility: N/A

Pressure: 30.01 "Hg

Humidity: 82%

Dew point: 48 °F

Location of Frankenthal (Pfalz)Location

Historic Weather in Frankenthal (Pfalz) — Graph

°F

Frankenthal (Pfalz) temperature yesterday

Maximum temperature yesterday: 70 °F (at 4:20 PM)
Minimum temperature yesterday: 50 °F (at 6:20 AM)
Average temperature yesterday: 62 °F

Past Weeks' High & Low Weather Summary

 TemperatureHumidityPressure
High81 °F (Aug 8, 1:50 PM)100% (Aug 10, 7:50 AM)30.12 "Hg (Aug 10, 7:50 AM)
Low48 °F (Aug 20, 5:50 AM)33% (Aug 21, 4:20 PM)29.65 "Hg (Aug 13, 1:50 PM)
Average66 °F65%29.92 "Hg
* Reported Aug 7 7:20 AM — Aug 22 7:50 AM, Frankenthal (Pfalz), Weather by CustomWeather, © 2014

Note: Actual official high and low records may vary slightly from our data, if they occured in-between our weather recording intervals... More about our weather records

Advertising

Frankenthal (Pfalz) weather history for previous 24 hours

 ConditionsComfort  
Time TempWeatherWind HumidityBarometerVisibility
7:50 AM
Aug 22
54 °FPassing clouds.5 mph77%30.01 "HgN/A
7:20 AM50 °FClear.3 mph88%30.01 "Hg10 mi
6:50 AM50 °FClear.3 mph82%30.01 "Hg10 mi
6:20 AM50 °FClear.5 mph88%30.01 "Hg10 mi
5:50 AM50 °FClear.3 mph88%30.01 "Hg10 mi
5:20 AM50 °FClear.5 mph82%30.01 "Hg10 mi
8:50 PM
Aug 21
64 °FSunny.3 mph40%30.01 "Hg10 mi
8:20 PM64 °FSunny.5 mph40%30.01 "Hg10 mi
7:50 PM66 °FPassing clouds.7 mph40%30.01 "HgN/A
7:20 PM68 °FSunny.9 mph35%30.01 "Hg10 mi
6:50 PM68 °FPassing clouds.8 mph35%30.01 "HgN/A
6:20 PM68 °FPassing clouds.5 mph38%30.01 "HgN/A
5:50 PM68 °FPassing clouds.7 mph35%30.01 "HgN/A
5:20 PM68 °FPassing clouds.8 mph38%30.01 "HgN/A
4:50 PM68 °FPassing clouds.8 mph35%30.01 "HgN/A
4:20 PM70 °FPassing clouds.7 mph33%30.01 "HgN/A
3:50 PM68 °FSunny.6 mph35%30.04 "Hg10 mi
3:20 PM66 °FPassing clouds.5 mph43%30.04 "HgN/A
2:50 PM66 °FScattered clouds.5 mph46%30.04 "HgN/A
2:20 PM64 °FBroken clouds.7 mph49%30.07 "HgN/A
1:50 PM64 °FSunny.6 mph52%30.07 "Hg10 mi
1:20 PM64 °FScattered clouds.8 mph52%30.07 "HgN/A
12:50 PM64 °FScattered clouds.7 mph52%30.07 "HgN/A
12:20 PM63 °FScattered clouds.2 mph56%30.07 "HgN/A
11:50 AM63 °FScattered clouds.1 mph59%30.07 "HgN/A
11:20 AM61 °FPassing clouds.3 mph59%30.07 "HgN/A
10:50 AM63 °FPassing clouds.2 mph59%30.07 "HgN/A
10:20 AM61 °FPassing clouds.1 mph59%30.07 "HgN/A
9:50 AM59 °FPassing clouds.1 mph68%30.07 "HgN/A
9:20 AM57 °FSunny.2 mph77%30.07 "Hg10 mi
Weather by CustomWeather, © 2014

See weather overviewHow to use our weather pages